Meath Environmental Platform

Observations

Time Sensor AQI SAQ Temp °C Hum % Pres Pa CO μg/m³ H₂S μg/m³ NO μg/m³ NO₂ μg/m³ O₃ μg/m³ SO₂ μg/m³ CO₂e PPM VOC PPM PM1 μg/m³ PM2.5 μg/m³ PM4 μg/m³ PM10 μg/m³ TPS µm
Tuesday 11 August 2026
07:26 Trim Patrick St 1 13.1 80 38,460 0.47 0.43 3.18 26.38 12.16 0 3.71 8.72 9.59
07:25 Trim Market St 2 16.4 73 50,855 0.64 0 2.28 32.13 22.61 0 1.43 2.89 5.71
07:25 Trim Patrick St 1 13 80 38,460 0.46 2.4 3.25 20.87 10.05 0 2.86 6.62 7.28
07:24 Trim Market St 2 16.3 74 50,330 0.64 0 2.31 35.52 23.37 0 0.71 2.89 5.11
07:24 Trim Patrick St 1 13 80 38,460 0.44 4.84 3.32 58.53 2.63 0 4.57 7.34 8.08
07:23 Trim Market St 2 16.1 74 49,695 0.65 0 2.38 39.5 16.53 0 1.43 3.36 6.93
07:23 Trim Patrick St 1 12.9 80 38,460 0.47 2.94 3.24 35.99 6.89 0 4.57 8.71 9.58
07:22 Trim Market St 2 16 74 48,991 0.63 0 2.43 27.77 22.03 0 2.14 3.83 6.32
07:22 Trim Patrick St 1 12.8 80 38,460 0.47 1.6 3.27 28.82 8.84 0 5.43 9.4 10.34
07:21 Trim Market St 2 15.8 74 48,019 0.63 0 2.51 30.88 22.24 0 2.14 3.35 6.32
07:21 Trim Patrick St 1 12.8 80 38,460 0.46 3.82 3.28 47.69 0 0 3.71 6.61 7.27
07:20 Trim Market St 2 15.7 74 46,963 0.63 0 2.49 33.46 27.03 0 1.43 2.86 6.33
07:20 Trim Patrick St 1 12.7 80 38,460 0.45 2.06 3.39 34.49 6.28 0 4.57 7.31 8.04
07:19 Trim Market St 2 15.6 74 45,947 0.61 0 2.53 28.29 24.28 0 0.71 1.89 5.13
07:19 Trim Patrick St 1 12.7 80 38,460 0.45 2.65 3.38 42.79 1.08 0 3.71 8.02 8.82
07:18 Trim Patrick St 1 12.7 80 38,460 0.46 4.49 3.37 46.59 0.24 0 4.57 8.71 9.58
07:17 Trim Market St 2 15.3 75 43,334 0.61 0 2.59 29.07 22.11 0 1.43 2.83 5.14
07:17 Trim Patrick St 1 12.6 80 38,460 0.46 4.33 3.4 44.2 1.28 0 4.57 8.71 9.58
07:16 Trim Patrick St 1 12.6 80 38,460 0.49 3.38 3.34 42.02 0.48 0 4.57 8 8.8
07:15 Trim Market St 2 15.1 75 40,588 0.66 0 2.74 28.92 21.79 0 1.43 3.29 5.74